IU1DOF-3 Weather Reports


Display with metric or nautical units.
time (UTC)temp
F
wind
direction
speed
MPH
gust
MPH
rain 1hr
in
rain 24hr
in
rain mn
in
humidity
%
barometer
mb
20260508025120 50 285 0.0 0.0 0.00 0.00 0.00 96 1012.7
20260508024057 50 284 0.0 0.0 0.00 0.00 0.00 96 1012.7
20260508023041 50 286 0.0 0.0 0.00 0.00 0.00 96 1012.6
20260508022025 50 284 0.0 0.0 0.00 0.00 0.00 96 1012.6
20260508021002 50 284 0.0 0.0 0.00 0.00 0.00 95 1012.7
20260508015941 50 283 0.0 0.0 0.00 0.00 0.00 96 1012.7
20260508014929 50 286 0.0 0.0 0.00 0.00 0.00 95 1012.6
20260508013904 50 284 0.0 0.0 0.00 0.00 0.00 95 1012.7
20260508012840 50 284 0.0 0.0 0.00 0.00 0.00 95 1012.8
20260508011818 50 286 0.0 0.0 0.00 0.00 0.00 94 1012.6
20260508010752 50 286 0.0 0.0 0.00 0.00 0.00 94 1012.8
20260508005740 50 285 0.0 0.0 0.00 0.00 0.00 94 1012.8
20260508004720 51 285 0.0 0.0 0.00 0.00 0.00 94 1012.9
20260508003657 51 284 0.0 0.0 0.00 0.00 0.00 93 1012.9
20260508002633 51 286 0.0 0.0 0.00 0.00 0.00 93 1012.9
20260508001625 51 284 0.0 0.0 0.00 0.00 0.00 93 1013.0
20260508000602 51 284 0.0 0.0 0.00 0.00 0.00 92 1012.9
20260507235539 51 286 0.0 0.0 0.00 0.00 0.00 92 1013.0
20260507234530 51 285 0.0 0.0 0.00 0.00 0.00 93 1013.1
20260507233521 51 284 0.0 0.0 0.00 0.00 0.00 92 1013.2
20260507232512 51 286 1.0 1.0 0.00 0.00 0.00 91 1013.2
20260507231449 51 287 1.0 2.0 0.00 0.00 0.00 91 1013.2
20260507230439 51 284 1.0 1.0 0.00 0.00 0.00 92 1013.3
20260507225418 51 284 0.0 1.0 0.00 0.00 0.00 92 1013.2
20260507224353 50 287 1.0 1.0 0.00 0.00 0.00 92 1013.3
20260507223340 50 285 1.0 2.0 0.00 0.00 0.00 93 1013.3
20260507222321 51 286 1.0 1.0 0.00 0.00 0.00 93 1013.3
20260507221257 51 282 0.0 0.0 0.00 0.00 0.00 92 1012.9
20260507220234 51 284 0.0 0.0 0.00 0.00 0.00 92 1013.1
20260507215209 51 287 0.0 0.0 0.00 0.00 0.00 91 1013.0
20260507214145 51 287 0.0 0.0 0.00 0.00 0.00 92 1012.8
20260507213137 51 286 0.0 0.0 0.00 0.00 0.00 93 1012.9
20260507212113 51 284 0.0 0.0 0.00 0.00 0.00 93 1012.7
20260507211049 52 287 1.0 2.0 0.00 0.00 0.00 92 1012.7
20260507210039 52 287 0.0 0.0 0.00 0.00 0.00 94 1012.8
20260507205017 52 287 1.0 2.0 0.00 0.00 0.00 94 1012.8
20260507203954 52 287 0.0 0.0 0.00 0.00 0.00 94 1012.7
20260507202939 53 284 0.0 0.0 0.00 0.00 0.00 93 1012.7
20260507201921 53 299 0.0 0.0 0.00 0.00 0.00 93 1012.7
20260507200857 53 285 0.0 0.0 0.00 0.00 0.00 92 1012.6
20260507195840 53 302 1.0 2.0 0.00 0.00 0.00 90 1012.4
20260507194826 53 284 1.0 2.0 0.00 0.00 0.00 91 1012.2
20260507193801 54 284 1.0 1.0 0.00 0.00 0.00 90 1012.1
20260507192737 54 283 0.0 1.0 0.00 0.00 0.00 90 1011.8
20260507191714 54 268 1.0 1.0 0.00 0.00 0.00 88 1011.9
20260507190650 54 288 2.0 3.0 0.00 0.00 0.00 89 1011.5
20260507185639 54 286 2.0 2.0 0.00 0.00 0.00 90 1011.4
20260507184617 54 285 2.0 2.0 0.00 0.00 0.00 90 1011.4
20260507183553 54 284 1.0 1.0 0.00 0.00 0.00 91 1011.5
20260507182541 55 286 1.0 2.0 0.00 0.00 0.00 90 1011.4
20260507181522 55 285 2.0 2.0 0.00 0.00 0.00 89 1011.2
20260507180458 55 285 1.0 1.0 0.00 0.00 0.00 91 1011.3
20260507175439 55 296 0.0 0.0 0.00 0.00 0.00 90 1010.9
20260507174425 56 287 0.0 0.0 0.00 0.00 0.00 91 1011.2
20260507173401 57 304 1.0 1.0 0.00 0.00 0.00 89 1011.1
20260507172338 58 267 0.0 0.0 0.00 0.00 0.00 76 1011.1
20260507171313 60 220 0.0 1.0 0.00 0.00 0.00 73 1011.0
20260507170249 61 219 0.0 0.0 0.00 0.00 0.00 72 1010.8
20260507165239 60 251 0.0 0.0 0.00 0.00 0.00 73 1010.9
20260507164218 59 156 1.0 1.0 0.00 0.00 0.00 71 1010.9
20260507163153 60 216 0.0 0.0 0.00 0.00 0.00 72 1011.0
20260507162139 60 251 0.0 0.0 0.00 0.00 0.00 71 1010.8
20260507161121 60 253 0.0 1.0 0.00 0.00 0.00 73 1010.8
20260507160058 60 256 0.0 1.0 0.00 0.00 0.00 72 1011.0
20260507155040 59 260 0.0 1.0 0.00 0.00 0.00 72 1010.6
20260507154025 60 258 3.0 5.0 0.00 0.00 0.00 71 1010.6
20260507153001 61 238 3.0 3.0 0.00 0.00 0.00 70 1010.4
20260507151938 63 256 1.0 2.0 0.00 0.00 0.00 69 1010.4
20260507150913 63 242 0.0 1.0 0.00 0.00 0.00 68 1010.6
20260507145849 62 245 0.0 0.0 0.00 0.00 0.00 69 1010.8
20260507144842 61 247 1.0 2.0 0.00 0.00 0.00 70 1010.8
20260507143818 62 270 1.0 2.0 0.00 0.00 0.00 71 1010.6
20260507142753 60 261 2.0 3.0 0.00 0.00 0.00 70 1010.8
20260507141740 61 242 2.0 3.0 0.00 0.00 0.00 69 1011.0
20260507140722 62 271 1.0 1.0 0.00 0.00 0.00 68 1010.7
20260507135657 63 277 1.0 2.0 0.00 0.00 0.00 68 1010.9
20260507134639 61 98 2.0 3.0 0.00 0.00 0.00 69 1011.0
20260507133626 63 271 2.0 4.0 0.00 0.00 0.00 67 1011.1
20260507132602 62 265 2.0 2.0 0.00 0.00 0.00 67 1011.1
20260507131539 61 219 2.0 4.0 0.00 0.00 0.00 69 1011.1
20260507130529 62 307 0.0 1.0 0.00 0.00 0.00 68 1011.1
20260507125505 61 263 2.0 3.0 0.00 0.00 0.00 69 1011.2
20260507124442 60 208 0.0 1.0 0.00 0.00 0.00 69 1011.3
20260507123433 61 124 2.0 4.0 0.00 0.00 0.00 69 1011.2
20260507122426 62 275 1.0 2.0 0.00 0.00 0.00 68 1011.4
20260507121403 63 285 1.0 2.0 0.00 0.00 0.00 67 1011.3
20260507120354 60 248 0.0 1.0 0.00 0.00 0.00 71 1011.4
20260507114322 61 263 0.0 2.0 0.00 0.00 0.00 73 1011.4
20260507113258 61 256 0.0 1.0 0.00 0.00 0.00 69 1011.5
20260507112233 62 264 0.0 1.0 0.00 0.00 0.00 73 1011.7
20260507111209 61 228 0.0 1.0 0.00 0.00 0.00 70 1011.8
20260507110201 61 243 0.0 1.0 0.00 0.00 0.00 70 1011.8
20260507105153 61 180 2.0 3.0 0.00 0.00 0.00 67 1012.1
20260507104145 60 122 1.0 3.0 0.00 0.00 0.00 71 1011.9
20260507103137 59 263 1.0 2.0 0.00 0.00 0.00 72 1012.0
20260507102130 57 245 2.0 3.0 0.00 0.00 0.00 74 1012.2
20260507101121 60 264 0.0 2.0 0.00 0.00 0.00 72 1011.9
20260507100058 58 256 0.0 1.0 0.00 0.00 0.00 75 1012.0
20260507095039 60 254 0.0 1.0 0.00 0.00 0.00 74 1011.7
20260507094025 58 251 2.0 4.0 0.00 0.00 0.00 72 1011.7
20260507093002 59 248 0.0 1.0 0.00 0.00 0.00 75 1011.7
20260507091938 59 235 2.0 5.0 0.00 0.00 0.00 75 1011.6
20260507090914 58 203 1.0 2.0 0.00 0.00 0.00 75 1011.7
20260507085906 57 242 2.0 3.0 0.00 0.00 0.00 76 1011.4
20260507084842 57 209 4.0 5.0 0.00 0.00 0.00 76 1011.5
20260507083833 57 231 3.0 4.0 0.00 0.00 0.00 76 1011.4
20260507082825 55 254 5.0 6.0 0.00 0.00 0.00 78 1011.4
20260507081802 55 244 3.0 3.0 0.00 0.00 0.00 77 1011.4
20260507080753 56 248 4.0 5.0 0.00 0.00 0.00 75 1011.4
20260507075740 55 253 0.0 0.0 0.00 0.00 0.00 76 1011.6
20260507074722 56 244 0.0 0.0 0.00 0.00 0.00 73 1011.7
20260507073658 55 248 0.0 1.0 0.00 0.00 0.00 69 1011.6
20260507072640 54 278 0.0 1.0 0.00 0.00 0.00 71 1011.7
20260507071626 52 282 0.0 0.0 0.00 0.00 0.00 77 1011.3
20260507070602 49 283 0.0 0.0 0.00 0.00 0.00 83 1011.5
20260507065539 47 285 0.0 0.0 0.00 0.00 0.00 82 1011.6
20260507064530 47 286 0.0 0.0 0.00 0.00 0.00 81 1011.5
20260507063506 48 286 0.0 0.0 0.00 0.00 0.00 80 1011.5
20260507062443 48 285 0.0 0.0 0.00 0.00 0.00 81 1011.6
20260507061418 48 295 1.0 1.0 0.00 0.00 0.00 77 1011.5
20260507060355 45 308 0.0 0.0 0.00 0.00 0.00 84 1011.4
20260507055340 43 328 0.0 1.0 0.00 0.00 0.00 89 1011.4
20260507054323 42 313 0.0 0.0 0.00 0.00 0.00 95 1011.2
20260507053258 42 309 0.0 0.0 0.00 0.00 0.00 96 1011.1
20260507052240 41 309 0.0 0.0 0.00 0.00 0.00 96 1011.2
20260507051225 41 311 0.0 0.0 0.00 0.00 0.00 96 1011.0
20260507050202 40 297 0.0 0.0 0.00 0.00 0.00 98 1010.7
20260507045139 40 302 0.0 0.0 0.00 0.00 0.00 98 1010.7
20260507044114 40 302 0.0 0.0 0.00 0.00 0.00 97 1010.7
20260507043050 40 301 0.0 0.0 0.00 0.00 0.00 97 1010.5
20260507042040 40 302 0.0 0.0 0.00 0.00 0.00 96 1010.6
20260507041018 41 302 2.0 2.0 0.00 0.00 0.00 96 1010.2
20260507035954 41 302 0.0 0.0 0.00 0.00 0.00 97 1010.2
20260507034940 41 302 0.0 0.0 0.00 0.00 0.00 98 1010.3
20260507033922 41 302 0.0 0.0 0.00 0.00 0.00 97 1010.4
20260507032858 42 302 0.0 0.0 0.00 0.00 0.00 97 1010.3
20260507031839 42 302 0.0 0.0 0.00 0.00 0.00 97 1010.2
20260507030826 42 302 0.0 0.0 0.00 0.00 0.00 97 1010.5
20260507025802 41 302 0.0 0.0 0.00 0.00 0.00 97 1010.4